Location: Unspecified
(0.0000°N, 0.0000°E)
Time: 20:44:40
(UTC+01:00)

Envisat - Visible Passes

Search period start: 16 February 2019 00:00
Search period end: 26 February 2019 00:00
Orbit: 764 x 766 km, 98.2° (Epoch: 16 February)

Date Brightness Start Highest point End Pass type
(mag) Time Alt. Az. Time Alt. Az. Time Alt. Az.
16 Feb 3.9 20:28:34 10° S 20:33:29 51° WSW 20:38:23 10° NNW visible
17 Feb 3.1 19:51:52 10° SSE 19:56:50 55° ENE 20:01:46 10° N visible
18 Feb 5.3 20:54:52 10° SSW 20:58:56 24° WSW 21:03:00 10° NW visible
19 Feb 3.3 20:17:15 10° S 20:22:18 70° WSW 20:27:20 10° NNW visible
20 Feb 3.4 19:40:55 10° SSE 19:45:39 40° ENE 19:50:22 10° N visible
20 Feb 6.2 21:22:47 10° WSW 21:24:23 11° WSW 21:25:57 10° W visible
21 Feb 4.7 20:43:14 10° SSW 20:47:45 33° WSW 20:52:17 10° NW visible
22 Feb 2.9 20:06:02 10° SSE 20:11:08 85° ENE 20:16:12 10° N visible
23 Feb 3.8 19:30:06 10° SE 19:34:28 29° ENE 19:38:50 10° NNE visible
23 Feb 5.9 21:10:11 10° SW 21:13:12 16° WSW 21:16:13 10° WNW visible
24 Feb 4.1 20:31:45 10° S 20:36:35 45° WSW 20:41:24 10° NNW visible
25 Feb 3.0 19:54:55 10° SSE 19:59:56 62° ENE 20:04:56 10° N visible
